GW6398 Weather Reports


Display with metric or nautical units.
time (UTC)temp
F
wind
direction
speed
MPH
gust
MPH
rain 1hr
in
rain 24hr
in
rain mn
in
humidity
%
barometer
mb
20260510220340 69 76 11.0 17.0 0.00 0.00 0.00 33 1024.4
20260510215836 69 148 8.0 15.0 0.00 0.00 0.00 34 1024.4
20260510215334 69 117 12.0 16.0 0.00 0.00 0.00 33 1024.4
20260510214831 70 102 10.0 16.0 0.00 0.00 0.00 33 1024.6
20260510214328 70 123 9.0 19.0 0.00 0.00 0.00 32 1024.7
20260510213825 70 139 7.0 15.0 0.00 0.00 0.00 33 1024.5
20260510213321 69 127 10.0 17.0 0.00 0.00 0.00 34 1024.6
20260510212818 71 136 7.0 18.0 0.00 0.00 0.00 33 1024.6
20260510212315 70 184 11.0 16.0 0.00 0.00 0.00 32 1024.6
20260510211812 69 147 4.0 9.0 0.00 0.00 0.00 32 1024.5
20260510211308 68 136 10.0 15.0 0.00 0.00 0.00 33 1024.4
20260510210804 67 134 7.0 14.0 0.00 0.00 0.00 35 1024.7
20260510210258 68 137 9.0 15.0 0.00 0.00 0.00 33 1024.6
20260510205758 67 169 6.0 14.0 0.00 0.00 0.00 35 1024.6
20260510205253 66 213 3.0 13.0 0.00 0.00 0.00 35 1024.5
20260510204750 67 225 5.0 16.0 0.00 0.00 0.00 35 1024.5
20260510204246 67 147 7.0 11.0 0.00 0.00 0.00 34 1024.5
20260510203743 68 137 10.0 16.0 0.00 0.00 0.00 34 1024.5
20260510203241 69 144 10.0 17.0 0.00 0.00 0.00 32 1024.2
20260510202741 68 147 8.0 14.0 0.00 0.00 0.00 34 1024.2
20260510202236 67 154 10.0 15.0 0.00 0.00 0.00 34 1024.4
20260510201734 69 110 12.0 17.0 0.00 0.00 0.00 32 1024.4
20260510201230 70 145 15.0 22.0 0.00 0.00 0.00 32 1024.0
20260510200727 72 83 9.0 15.0 0.00 0.00 0.00 29 1023.9
20260510200225 70 118 9.0 19.0 0.00 0.00 0.00 30 1023.9
20260510195721 70 173 4.0 17.0 0.00 0.00 0.00 31 1024.0
20260510195218 68 128 11.0 16.0 0.00 0.00 0.00 31 1023.6
20260510194717 68 132 10.0 13.0 0.00 0.00 0.00 31 1023.6
20260510194214 69 132 10.0 15.0 0.00 0.00 0.00 30 1024.0
20260510193710 71 140 5.0 9.0 0.00 0.00 0.00 28 1023.5
20260510193210 69 70 4.0 7.0 0.00 0.00 0.00 29 1023.8
20260510192706 69 139 2.0 4.0 0.00 0.00 0.00 31 1023.8
20260510192201 68 98 4.0 6.0 0.00 0.00 0.00 31 1023.8
20260510191657 68 74 2.0 6.0 0.00 0.00 0.00 34 1024.0
20260510191154 66 95 3.0 9.0 0.00 0.00 0.00 36 1024.0
20260510190652 67 77 1.0 8.0 0.00 0.00 0.00 36 1023.8
20260510190149 67 105 5.0 7.0 0.00 0.00 0.00 31 1023.8
20260510185645 68 97 4.0 13.0 0.00 0.00 0.00 30 1023.8
20260510185143 68 81 8.0 11.0 0.00 0.00 0.00 30 1023.8
20260510184640 68 100 3.0 6.0 0.00 0.00 0.00 30 1023.9
20260510184136 68 141 2.0 4.0 0.00 0.00 0.00 30 1023.8
20260510183631 69 85 4.0 8.0 0.00 0.00 0.00 29 1023.9
20260510183127 69 70 5.0 7.0 0.00 0.00 0.00 29 1023.6
20260510182624 69 130 3.0 11.0 0.00 0.00 0.00 29 1023.9
20260510182119 69 38 7.0 13.0 0.00 0.00 0.00 29 1023.9
20260510181617 69 79 6.0 9.0 0.00 0.00 0.00 30 1024.0
20260510181113 70 47 4.0 7.0 0.00 0.00 0.00 28 1024.0
20260510180609 71 62 4.0 9.0 0.00 0.00 0.00 29 1023.9
20260510180107 71 64 5.0 10.0 0.00 0.00 0.00 28 1023.6
20260510175602 70 82 9.0 13.0 0.00 0.00 0.00 29 1023.9
20260510175058 70 66 5.0 9.0 0.00 0.00 0.00 30 1024.0
20260510174557 68 190 3.0 10.0 0.00 0.00 0.00 31 1024.1
20260510174053 67 24 4.0 10.0 0.00 0.00 0.00 33 1023.9
20260510173548 68 104 2.0 7.0 0.00 0.00 0.00 31 1023.9
20260510173046 69 128 3.0 9.0 0.00 0.00 0.00 31 1024.0
20260510172541 68 137 4.0 13.0 0.00 0.00 0.00 32 1024.1
20260510172038 69 108 4.0 14.0 0.00 0.00 0.00 31 1023.9
20260510171535 68 58 9.0 13.0 0.00 0.00 0.00 31 1023.8
20260510171033 69 45 11.0 15.0 0.00 0.00 0.00 30 1023.9
20260510170529 70 36 5.0 11.0 0.00 0.00 0.00 30 1023.9
20260510170025 70 143 10.0 14.0 0.00 0.00 0.00 29 1023.8
20260510165520 70 113 3.0 13.0 0.00 0.00 0.00 28 1023.8
20260510165017 70 89 6.0 14.0 0.00 0.00 0.00 29 1023.5
20260510164514 69 125 6.0 10.0 0.00 0.00 0.00 29 1023.6
20260510164010 70 101 7.0 13.0 0.00 0.00 0.00 27 1023.8
20260510163506 69 134 6.0 9.0 0.00 0.00 0.00 26 1023.9
20260510163001 69 84 6.0 11.0 0.00 0.00 0.00 26 1023.5
20260510162452 69 59 1.0 8.0 0.00 0.00 0.00 28 1023.4
20260510161948 68 155 3.0 7.0 0.00 0.00 0.00 27 1023.5
20260510161444 69 193 7.0 13.0 0.00 0.00 0.00 27 1023.3
20260510160941 69 17 3.0 4.0 0.00 0.00 0.00 27 1023.5
20260510160438 68 205 7.0 11.0 0.00 0.00 0.00 28 1023.5
20260510155936 68 170 8.0 11.0 0.00 0.00 0.00 28 1023.3
20260510155429 68 94 5.0 8.0 0.00 0.00 0.00 27 1023.4
20260510154925 68 68 6.0 11.0 0.00 0.00 0.00 28 1023.6
20260510154421 67 154 4.0 9.0 0.00 0.00 0.00 28 1023.4
20260510153919 66 198 1.0 3.0 0.00 0.00 0.00 29 1023.4
20260510153417 66 146 3.0 8.0 0.00 0.00 0.00 29 1023.6
20260510152913 65 154 5.0 10.0 0.00 0.00 0.00 30 1023.5
20260510152411 66 175 4.0 9.0 0.00 0.00 0.00 30 1023.4
20260510151907 65 124 4.0 7.0 0.00 0.00 0.00 30 1023.3
20260510151404 65 156 4.0 9.0 0.00 0.00 0.00 30 1023.3
20260510150900 65 137 4.0 10.0 0.00 0.00 0.00 32 1023.3
20260510150356 64 108 2.0 8.0 0.00 0.00 0.00 32 1023.3
20260510145852 64 200 6.0 11.0 0.00 0.00 0.00 32 1023.5
20260510145349 63 131 9.0 11.0 0.00 0.00 0.00 32 1023.3
20260510144846 63 152 5.0 10.0 0.00 0.00 0.00 33 1023.0
20260510144343 63 172 7.0 13.0 0.00 0.00 0.00 32 1023.4
20260510143842 63 153 12.0 14.0 0.00 0.00 0.00 33 1023.3
20260510143339 63 145 7.0 10.0 0.00 0.00 0.00 32 1022.9
20260510142836 62 98 7.0 10.0 0.00 0.00 0.00 33 1023.0
20260510142332 62 154 7.0 10.0 0.00 0.00 0.00 33 1023.0
20260510141829 61 98 4.0 8.0 0.00 0.00 0.00 34 1023.1
20260510141327 61 160 5.0 13.0 0.00 0.00 0.00 34 1023.1
20260510140824 62 143 8.0 11.0 0.00 0.00 0.00 33 1022.8
20260510140320 62 211 6.0 13.0 0.00 0.00 0.00 33 1023.0
20260510135819 62 94 5.0 10.0 0.00 0.00 0.00 33 1022.8
20260510135315 61 128 4.0 10.0 0.00 0.00 0.00 33 1022.6
20260510134813 61 111 4.0 6.0 0.00 0.00 0.00 33 1022.6
20260510134310 60 166 3.0 7.0 0.00 0.00 0.00 33 1022.6
20260510133805 60 184 2.0 4.0 0.00 0.00 0.00 33 1022.5
20260510133302 60 171 2.0 3.0 0.00 0.00 0.00 33 1022.4
20260510132757 59 188 1.0 2.0 0.00 0.00 0.00 34 1022.4
20260510132256 59 188 1.0 2.0 0.00 0.00 0.00 34 1022.4
20260510131752 57 187 1.0 1.0 0.00 0.00 0.00 36 1022.5
20260510131250 56 222 0.0 0.0 0.00 0.00 0.00 37 1022.5
20260510130746 55 255 0.0 0.0 0.00 0.00 0.00 38 1022.3
20260510130243 54 274 1.0 1.0 0.00 0.00 0.00 38 1022.3
20260510125740 53 274 2.0 2.0 0.00 0.00 0.00 39 1022.2
20260510125236 53 272 1.0 1.0 0.00 0.00 0.00 39 1022.3
20260510124732 53 264 1.0 1.0 0.00 0.00 0.00 39 1022.0
20260510124230 54 278 1.0 1.0 0.00 0.00 0.00 38 1022.0
20260510123725 55 262 1.0 1.0 0.00 0.00 0.00 37 1021.9
20260510123221 56 283 2.0 2.0 0.00 0.00 0.00 35 1021.9
20260510122717 57 257 0.0 0.0 0.00 0.00 0.00 35 1021.8
20260510122214 57 230 0.0 0.0 0.00 0.00 0.00 34 1021.7
20260510121710 58 218 0.0 0.0 0.00 0.00 0.00 34 1021.7
20260510121208 59 199 1.0 1.0 0.00 0.00 0.00 33 1021.5
20260510120705 59 146 1.0 2.0 0.00 0.00 0.00 32 1021.5
20260510120201 60 222 0.0 3.0 0.00 0.00 0.00 31 1021.5
20260510115652 60 180 5.0 6.0 0.00 0.00 0.00 30 1021.7
20260510115150 60 182 1.0 3.0 0.00 0.00 0.00 30 1021.5
20260510114645 61 197 0.0 2.0 0.00 0.00 0.00 29 1021.4
20260510114142 62 214 1.0 4.0 0.00 0.00 0.00 29 1021.3
20260510113637 62 71 3.0 3.0 0.00 0.00 0.00 28 1021.5
20260510113134 61 170 2.0 2.0 0.00 0.00 0.00 29 1021.8
20260510112631 61 162 1.0 6.0 0.00 0.00 0.00 29 1021.7
20260510112127 61 72 6.0 9.0 0.00 0.00 0.00 29 1021.9
20260510111624 62 244 2.0 19.0 0.00 0.00 0.00 30 1022.9
20260510111120 62 287 3.0 11.0 0.00 0.00 0.00 27 1022.0
20260510110615 62 296 4.0 8.0 0.00 0.00 0.00 26 1022.0
20260510110114 62 240 3.0 4.0 0.00 0.00 0.00 27 1021.7
20260510105609 63 182 1.0 2.0 0.00 0.00 0.00 27 1021.5
20260510105109 63 161 2.0 9.0 0.00 0.00 0.00 26 1021.5
20260510104606 62 117 7.0 14.0 0.00 0.00 0.00 27 1021.4
20260510104102 61 357 12.0 25.0 0.00 0.00 0.00 30 1022.6
20260510103600 58 266 4.0 9.0 0.00 0.00 0.00 27 1021.3
20260510103055 58 292 2.0 3.0 0.00 0.00 0.00 27 1021.2
20260510102551 57 268 1.0 2.0 0.00 0.00 0.00 27 1020.8
20260510102047 57 265 1.0 2.0 0.00 0.00 0.00 28 1020.7
20260510101545 57 256 0.0 2.0 0.00 0.00 0.00 27 1020.7
20260510101044 57 284 2.0 2.0 0.00 0.00 0.00 27 1020.7
20260510100539 58 278 2.0 2.0 0.00 0.00 0.00 27 1020.7
20260510100037 58 264 1.0 2.0 0.00 0.00 0.00 27 1020.6
20260510095532 59 258 0.0 1.0 0.00 0.00 0.00 26 1020.6
20260510095032 60 295 2.0 3.0 0.00 0.00 0.00 25 1020.6
20260510094526 60 299 2.0 3.0 0.00 0.00 0.00 25 1020.6
20260510094022 60 300 2.0 3.0 0.00 0.00 0.00 25 1020.6
20260510093518 59 282 2.0 4.0 0.00 0.00 0.00 25 1020.3
20260510093015 59 286 2.0 3.0 0.00 0.00 0.00 25 1020.6
20260510092512 59 275 2.0 2.0 0.00 0.00 0.00 25 1020.3
20260510092012 58 268 1.0 3.0 0.00 0.00 0.00 25 1020.4
20260510091509 59 262 2.0 3.0 0.00 0.00 0.00 25 1020.2
20260510091004 59 270 1.0 2.0 0.00 0.00 0.00 25 1020.3
20260510090502 60 312 2.0 3.0 0.00 0.00 0.00 24 1020.4
20260510085957 60 247 1.0 2.0 0.00 0.00 0.00 24 1020.3
20260510085452 59 251 2.0 3.0 0.00 0.00 0.00 25 1020.3
20260510084948 58 265 2.0 3.0 0.00 0.00 0.00 25 1020.3
20260510084445 57 263 3.0 3.0 0.00 0.00 0.00 26 1020.1
20260510083942 57 245 2.0 3.0 0.00 0.00 0.00 26 1019.9
20260510083439 57 274 1.0 2.0 0.00 0.00 0.00 26 1019.9
20260510082934 57 259 1.0 2.0 0.00 0.00 0.00 25 1019.6
20260510082432 57 288 2.0 2.0 0.00 0.00 0.00 25 1019.7
20260510081931 57 293 2.0 3.0 0.00 0.00 0.00 25 1019.8
20260510081427 57 306 3.0 3.0 0.00 0.00 0.00 25 1019.7
20260510080924 57 296 3.0 3.0 0.00 0.00 0.00 25 1019.6
20260510080422 57 301 2.0 3.0 0.00 0.00 0.00 25 1019.7
20260510075919 58 284 2.0 2.0 0.00 0.00 0.00 24 1019.4
20260510075418 59 292 2.0 2.0 0.00 0.00 0.00 24 1019.6
20260510074914 60 318 2.0 3.0 0.00 0.00 0.00 23 1019.7
20260510074411 60 284 2.0 3.0 0.00 0.00 0.00 22 1019.6
20260510073908 60 305 2.0 4.0 0.00 0.00 0.00 22 1019.7
20260510073403 60 307 4.0 4.0 0.00 0.00 0.00 22 1019.6
20260510072859 61 300 4.0 6.0 0.00 0.00 0.00 22 1019.3
20260510072356 61 315 4.0 6.0 0.00 0.00 0.00 22 1019.6
20260510071852 61 290 3.0 7.0 0.00 0.00 0.00 21 1019.3
20260510071349 60 299 4.0 4.0 0.00 0.00 0.00 22 1019.3
20260510070847 59 308 4.0 6.0 0.00 0.00 0.00 23 1019.6
20260510070344 58 300 4.0 4.0 0.00 0.00 0.00 23 1019.4
20260510065838 57 288 4.0 4.0 0.00 0.00 0.00 23 1019.3
20260510065336 57 287 3.0 4.0 0.00 0.00 0.00 23 1019.2
20260510064832 57 304 4.0 4.0 0.00 0.00 0.00 23 1019.2
20260510064331 57 295 4.0 4.0 0.00 0.00 0.00 23 1019.3
20260510063826 57 307 3.0 4.0 0.00 0.00 0.00 23 1019.2
20260510063323 58 296 4.0 4.0 0.00 0.00 0.00 22 1019.3
20260510062819 59 295 3.0 3.0 0.00 0.00 0.00 21 1019.2
20260510062315 60 290 2.0 3.0 0.00 0.00 0.00 20 1019.1
20260510061810 60 261 1.0 2.0 0.00 0.00 0.00 20 1019.3
20260510061308 61 303 2.0 4.0 0.00 0.00 0.00 20 1019.1
20260510060804 62 297 4.0 6.0 0.00 0.00 0.00 19 1019.0
20260510060301 61 306 6.0 7.0 0.00 0.00 0.00 19 1019.0
20260510055758 61 296 4.0 6.0 0.00 0.00 0.00 19 1018.7
20260510055256 61 302 4.0 4.0 0.00 0.00 0.00 19 1018.6
20260510054755 62 303 4.0 6.0 0.00 0.00 0.00 19 1018.7
20260510054252 62 299 4.0 6.0 0.00 0.00 0.00 19 1018.5
20260510053752 62 309 4.0 6.0 0.00 0.00 0.00 19 1018.7
20260510053248 62 282 3.0 4.0 0.00 0.00 0.00 18 1018.5
20260510052744 63 308 5.0 6.0 0.00 0.00 0.00 18 1018.3
20260510052240 63 297 4.0 6.0 0.00 0.00 0.00 18 1018.5
20260510051736 63 320 4.0 6.0 0.00 0.00 0.00 18 1018.6
20260510051233 64 338 5.0 6.0 0.00 0.00 0.00 17 1018.5
20260510050729 64 325 4.0 7.0 0.00 0.00 0.00 17 1018.3
20260510050227 65 312 5.0 6.0 0.00 0.00 0.00 17 1018.2
20260510045723 65 341 4.0 7.0 0.00 0.00 0.00 17 1018.3
20260510045220 65 337 5.0 9.0 0.00 0.00 0.00 17 1018.3
20260510044716 65 317 5.0 9.0 0.00 0.00 0.00 17 1018.3
20260510044215 65 338 4.0 8.0 0.00 0.00 0.00 17 1018.2
20260510043709 66 279 5.0 7.0 0.00 0.00 0.00 17 1018.2
20260510043207 66 312 8.0 9.0 0.00 0.00 0.00 17 1018.1
20260510042704 67 307 7.0 10.0 0.00 0.00 0.00 17 1018.3
20260510042200 68 300 6.0 8.0 0.00 0.00 0.00 17 1018.2
20260510041657 68 303 5.0 10.0 0.00 0.00 0.00 17 1018.1
20260510041154 68 312 6.0 10.0 0.00 0.00 0.00 17 1018.3
20260510040651 68 336 8.0 10.0 0.00 0.00 0.00 17 1018.2
20260510040148 68 291 3.0 3.0 0.00 0.00 0.00 17 1018.3
20260510035643 69 259 3.0 4.0 0.00 0.00 0.00 17 1018.1
20260510035138 69 254 2.0 4.0 0.00 0.00 0.00 17 1018.0
20260510034636 70 313 2.0 4.0 0.00 0.00 0.00 16 1018.0
20260510034133 71 309 2.0 6.0 0.00 0.00 0.00 16 1017.8
20260510033629 70 327 6.0 11.0 0.00 0.00 0.00 16 1018.0
20260510033127 71 320 3.0 6.0 0.00 0.00 0.00 16 1018.1
20260510032623 70 257 3.0 9.0 0.00 0.00 0.00 16 1018.1
20260510032118 71 260 1.0 3.0 0.00 0.00 0.00 17 1018.1
20260510031613 71 216 6.0 7.0 0.00 0.00 0.00 17 1018.1
20260510031110 71 171 5.0 15.0 0.00 0.00 0.00 17 1018.0
20260510030605 71 242 5.0 7.0 0.00 0.00 0.00 16 1018.3
20260510030103 71 282 7.0 10.0 0.00 0.00 0.00 16 1018.0
20260510025600 70 238 6.0 13.0 0.00 0.00 0.00 16 1017.7
20260510025057 71 300 6.0 8.0 0.00 0.00 0.00 17 1017.6
20260510024554 71 314 9.0 13.0 0.00 0.00 0.00 17 1017.8
20260510024050 71 335 7.0 8.0 0.00 0.00 0.00 17 1017.5
20260510023546 71 268 12.0 16.0 0.00 0.00 0.00 16 1017.6
20260510023045 71 276 9.0 10.0 0.00 0.00 0.00 17 1017.5
20260510022544 71 312 5.0 8.0 0.00 0.00 0.00 16 1017.3
20260510022044 72 312 6.0 9.0 0.00 0.00 0.00 16 1017.1
20260510021540 73 281 9.0 11.0 0.00 0.00 0.00 16 1017.0
20260510021038 72 249 9.0 19.0 0.00 0.00 0.00 16 1017.0
20260510020538 71 219 4.0 11.0 0.00 0.00 0.00 16 1017.2
20260510020034 72 314 7.0 10.0 0.00 0.00 0.00 16 1017.0
20260510015530 72 331 6.0 8.0 0.00 0.00 0.00 15 1017.0
20260510015025 72 272 6.0 9.0 0.00 0.00 0.00 15 1016.9
20260510014522 73 285 5.0 11.0 0.00 0.00 0.00 15 1016.9
20260510014020 73 273 6.0 16.0 0.00 0.00 0.00 15 1016.7
20260510013514 73 311 6.0 11.0 0.00 0.00 0.00 15 1016.9
20260510013010 73 249 5.0 8.0 0.00 0.00 0.00 14 1016.6
20260510012504 73 236 2.0 6.0 0.00 0.00 0.00 14 1016.6
20260510012000 74 246 6.0 8.0 0.00 0.00 0.00 14 1016.6
20260510011455 74 271 2.0 6.0 0.00 0.00 0.00 14 1016.6
20260510010951 74 262 8.0 9.0 0.00 0.00 0.00 13 1016.5
20260510010448 74 270 1.0 4.0 0.00 0.00 0.00 14 1016.5
20260510005945 75 124 1.0 11.0 0.00 0.00 0.00 13 1016.6
20260510005441 75 256 7.0 13.0 0.00 0.00 0.00 13 1016.5
20260510004939 75 248 7.0 10.0 0.00 0.00 0.00 13 1016.4
20260510004436 75 236 9.0 11.0 0.00 0.00 0.00 13 1016.4
20260510003934 75 212 6.0 17.0 0.00 0.00 0.00 13 1016.2
20260510003430 75 225 4.0 8.0 0.00 0.00 0.00 12 1016.2
20260510002930 75 296 6.0 8.0 0.00 0.00 0.00 12 1016.0
20260510002427 75 328 5.0 8.0 0.00 0.00 0.00 12 1016.4
20260510001923 76 247 4.0 7.0 0.00 0.00 0.00 12 1016.4
20260510001421 76 242 5.0 6.0 0.00 0.00 0.00 12 1016.2
20260510000919 76 320 8.0 16.0 0.00 0.00 0.00 12 1016.4
20260510000415 78 298 5.0 14.0 0.00 0.00 0.00 11 1016.2
20260509235911 78 278 8.0 15.0 0.00 0.00 0.00 11 1016.4
20260509235408 77 301 4.0 7.0 0.00 0.00 0.00 12 1016.4
20260509234904 77 327 6.0 8.0 0.00 0.00 0.00 12 1016.2
20260509234401 78 279 15.0 18.0 0.00 0.00 0.00 11 1016.4
20260509233859 78 223 6.0 8.0 0.00 0.00 0.00 11 1016.2
20260509233356 79 251 6.0 17.0 0.00 0.00 0.00 11 1016.4
20260509232852 79 356 11.0 14.0 0.00 0.00 0.00 11 1016.5
20260509232350 78 262 11.0 14.0 0.00 0.00 0.00 11 1016.4
20260509231846 78 254 7.0 14.0 0.00 0.00 0.00 11 1016.4
20260509231343 77 296 2.0 9.0 0.00 0.00 0.00 12 1016.4
20260509230841 78 242 10.0 18.0 0.00 0.00 0.00 11 1016.6
20260509230337 77 332 16.0 22.0 0.00 0.00 0.00 11 1016.5
20260509225832 78 244 8.0 14.0 0.00 0.00 0.00 11 1016.5
20260509225330 78 299 8.0 13.0 0.00 0.00 0.00 11 1016.6
20260509224826 78 214 11.0 19.0 0.00 0.00 0.00 11 1016.6
20260509224322 78 234 4.0 8.0 0.00 0.00 0.00 11 1016.7
20260509223819 78 298 8.0 18.0 0.00 0.00 0.00 11 1016.7
20260509223316 77 315 7.0 16.0 0.00 0.00 0.00 11 1017.0
20260509222812 77 174 3.0 9.0 0.00 0.00 0.00 11 1017.0
20260509222308 77 267 5.0 10.0 0.00 0.00 0.00 11 1016.7
20260509221803 79 259 9.0 14.0 0.00 0.00 0.00 11 1017.0
20260509221301 80 326 7.0 16.0 0.00 0.00 0.00 11 1016.9
20260509220756 78 210 5.0 11.0 0.00 0.00 0.00 11 1017.0